Weather reports worldwide

Advertisment
Genova/Sestri, Italy (16120): temperature & dewpoint: 02.08.2020 05:00:00 - 08.08.2020 05:00:00 (CEST)Genova/Sestri, Italy (16120): wind speed: 02.08.2020 05:00:00 - 08.08.2020 05:00:00 (CEST)Genova/Sestri, Italy (16120): wind direction: 02.08.2020 05:00:00 - 08.08.2020 05:00:00 (CEST)Genova/Sestri, Italy (16120): reduced air pressure: 02.08.2020 05:00:00 - 08.08.2020 05:00:00 (CEST)Genova/Sestri, Italy (16120): visibility: 02.08.2020 05:00:00 - 08.08.2020 05:00:00 (CEST)Genova/Sestri, Italy (16120): precipitation: 02.08.2020 05:00:00 - 08.08.2020 05:00:00 (CEST)
Date & Time tt [°C] td [°C] ff [km/h] ff [kn] dd ppp [hPa] vv [km] rr [mm]
08.08.2020 05:00:00 26,4 16,7 22 12 NNE 1017,7 10 0,0
08.08.2020 04:00:00 27,0 17,0 5 3 NNW - 10 -
08.08.2020 03:00:00 27,0 18,0 9 5 NNE - 10 -
08.08.2020 02:00:00 26,4 17,9 8 4 N 1018,1 10 -
08.08.2020 01:00:00 27,0 18,0 9 5 NNE - 10 -
08.08.2020 00:00:00 27,0 18,0 4 2 - - 10 -
07.08.2020 23:00:00 27,8 18,0 9 5 NNE 1017,9 10 0,0
07.08.2020 22:00:00 28,0 19,0 5 3 NE - 10 -
07.08.2020 21:00:00 27,0 20,0 2 1 - - 10 -
07.08.2020 20:00:00 27,4 20,6 5 3 ESE 1016,8 10 -
07.08.2020 19:00:00 29,0 21,0 4 2 W - 10 -
07.08.2020 18:00:00 28,0 20,0 8 4 W - 10 -
07.08.2020 17:00:00 28,0 21,9 8 4 SW 1017,0 10 0,0
07.08.2020 16:00:00 28,0 22,0 11 6 W - 10 -
07.08.2020 15:00:00 27,0 24,0 15 8 W - 10 -
07.08.2020 14:00:00 27,6 22,0 15 8 WSW 1017,2 10 -
07.08.2020 13:00:00 27,0 21,0 13 7 WSW - 10 -
07.08.2020 12:00:00 27,0 21,0 15 8 WSW - 10 -
07.08.2020 11:00:00 27,4 20,9 11 6 SW 1017,9 10 0,0
07.08.2020 10:00:00 29,0 18,0 16 9 NNE - 10 -
07.08.2020 09:00:00 27,0 17,0 18 10 NNE - 10 -
07.08.2020 08:00:00 26,0 16,1 22 12 NNE 1017,6 10 -
07.08.2020 07:00:00 25,0 16,0 21 11 NNE - 10 -
07.08.2020 06:00:00 25,0 16,0 18 10 NNE - 10 -
07.08.2020 05:00:00 25,6 15,9 16 9 NNE 1017,2 10 0,0
07.08.2020 04:00:00 26,0 16,0 26 14 NE - 10 -
07.08.2020 03:00:00 27,0 16,0 22 12 NNE - 10 -
07.08.2020 02:00:00 26,6 16,7 18 10 N 1017,3 10 -
07.08.2020 01:00:00 27,0 17,0 15 8 NNE - 10 -
07.08.2020 00:00:00 27,0 20,0 8 4 - - 10 -
06.08.2020 23:00:00 27,1 18,3 11 6 N 1017,0 10 0,0
06.08.2020 22:00:00 26,0 21,0 4 2 - - 10 -
06.08.2020 21:00:00 26,0 21,0 2 1 - - 10 -
06.08.2020 20:00:00 26,2 21,8 5 3 WSW 1015,6 10 -
06.08.2020 19:00:00 27,0 22,0 9 5 W - 10 -
06.08.2020 18:00:00 27,0 22,0 18 10 WSW - 10 -
06.08.2020 17:00:00 29,7 18,0 15 8 NNE 1014,5 10 0,0
06.08.2020 16:00:00 33,0 17,0 16 9 NNE - 10 -
06.08.2020 15:00:00 32,0 16,0 18 10 NNE - 10 -
06.08.2020 14:00:00 31,5 15,3 24 13 NE 1015,1 10 -
06.08.2020 13:00:00 31,0 15,0 24 13 NE - 10 -
06.08.2020 12:00:00 29,0 15,0 21 11 NNE - 10 -
06.08.2020 11:00:00 28,2 14,3 18 10 NE 1015,6 10 0,0
06.08.2020 10:00:00 27,0 14,0 21 11 NE - 10 -
06.08.2020 09:00:00 26,0 14,0 15 8 N - 10 -
06.08.2020 08:00:00 24,0 13,1 21 11 N 1014,8 10 -
06.08.2020 07:00:00 23,0 13,0 13 7 NNE - 10 -
06.08.2020 06:00:00 23,0 12,0 8 4 NNE - 10 -
06.08.2020 05:00:00 23,2 11,3 4 2 - 1013,9 10 0,0
06.08.2020 04:00:00 23,0 12,0 13 7 NNE - 10 -
06.08.2020 03:00:00 24,0 12,0 21 11 NNE - 10 -
06.08.2020 02:00:00 23,9 13,1 9 5 NNE 1014,3 10 -
06.08.2020 01:00:00 - - - - - - - -
06.08.2020 00:00:00 25,0 15,0 8 4 NE - 10 -
05.08.2020 23:00:00 24,7 16,4 8 4 NNE 1013,8 10 0,0
05.08.2020 22:00:00 25,0 17,0 5 3 WNW - 10 -
05.08.2020 21:00:00 26,0 18,0 4 2 S - 10 -
05.08.2020 20:00:00 26,0 18,8 8 4 SSW 1012,5 10 -
05.08.2020 19:00:00 26,0 19,0 9 5 SE - 10 -
05.08.2020 18:00:00 27,0 19,0 13 7 ESE - 10 -
05.08.2020 17:00:00 27,2 16,8 18 10 SW 1011,3 10 0,0
05.08.2020 16:00:00 27,0 15,0 16 9 SSW - 10 -
05.08.2020 15:00:00 27,0 15,0 18 10 SSW - 10 -
05.08.2020 14:00:00 27,9 13,1 4 2 - 1011,8 10 -
05.08.2020 13:00:00 29,0 10,0 18 10 N - 10 -
05.08.2020 12:00:00 26,0 12,0 8 4 S - 10 -
05.08.2020 11:00:00 27,9 10,0 15 8 NE 1012,0 10 0,0
05.08.2020 10:00:00 25,0 9,0 18 10 NE - 10 -
05.08.2020 09:00:00 24,0 9,0 22 12 NE - 10 -
05.08.2020 08:00:00 22,6 9,1 22 12 NNE 1010,9 10 -
05.08.2020 07:00:00 21,0 8,0 22 12 NNE - 10 -
05.08.2020 06:00:00 22,0 8,0 21 11 NNE - 10 -
05.08.2020 05:00:00 22,0 8,0 8 4 NE 1009,9 10 0,0
05.08.2020 04:00:00 22,0 9,0 21 11 NNE - 10 -
05.08.2020 03:00:00 23,0 10,0 16 9 NNE - 10 -
05.08.2020 02:00:00 23,0 10,6 16 9 NE 1009,5 10 -
05.08.2020 01:00:00 24,0 10,0 13 7 NNE - 10 -
05.08.2020 00:00:00 23,0 10,0 11 6 E - 10 -
04.08.2020 23:00:00 23,4 10,3 11 6 NE 1008,9 10 0,0
04.08.2020 22:00:00 25,0 10,0 9 5 NNE - 10 -
04.08.2020 21:00:00 27,0 9,0 11 6 N - 10 -
04.08.2020 20:00:00 27,5 8,4 13 7 N 1007,4 10 -
04.08.2020 19:00:00 29,0 9,0 24 13 NNE - 10 -
04.08.2020 18:00:00 29,0 8,0 18 10 N - 10 -
04.08.2020 17:00:00 29,3 7,9 21 11 NNE 1005,6 10 0,0
04.08.2020 16:00:00 29,0 10,0 21 11 NE - 10 -
04.08.2020 15:00:00 29,0 9,0 26 14 NNE - 10 -
04.08.2020 14:00:00 27,1 7,8 28 15 NNE 1006,1 10 -
04.08.2020 13:00:00 28,0 7,0 21 11 NNW - 10 -
04.08.2020 12:00:00 25,0 12,0 9 5 E - 10 -
04.08.2020 11:00:00 25,6 12,2 24 13 W 1004,6 10 0,0
04.08.2020 10:00:00 23,0 12,0 21 11 N - 10 -
04.08.2020 09:00:00 23,0 11,0 21 11 NE - 10 -
04.08.2020 08:00:00 22,3 10,9 8 4 - 1003,7 10 -
04.08.2020 07:00:00 22,0 11,0 5 3 WNW - 10 -
04.08.2020 06:00:00 22,0 11,0 5 3 - - 10 -
04.08.2020 05:00:00 21,5 12,1 11 6 NE 1003,0 10 0,0
04.08.2020 04:00:00 21,0 13,0 15 8 NNE - 10 -
04.08.2020 03:00:00 - - - - - - - -
04.08.2020 02:00:00 22,5 14,6 8 4 ESE 1003,8 10 -
04.08.2020 01:00:00 22,0 14,0 9 5 ENE - 10 -
04.08.2020 00:00:00 22,0 17,0 9 5 E - 10 -
03.08.2020 23:00:00 22,1 16,8 5 3 NNE 1002,9 10 0,0
03.08.2020 22:00:00 22,0 16,0 8 4 - - 10 -
03.08.2020 21:00:00 23,0 16,0 11 6 NNE - 10 -
03.08.2020 20:00:00 21,4 16,8 21 11 NNE 1001,9 10 -
03.08.2020 19:00:00 23,0 20,0 8 4 N - 10 -
03.08.2020 18:00:00 23,0 20,0 18 10 W - 10 -
03.08.2020 17:00:00 23,5 20,2 11 6 NNE 1002,9 10 0,0
03.08.2020 16:00:00 26,0 20,0 16 9 W - 10 -
03.08.2020 15:00:00 28,0 18,0 11 6 N - 10 -
03.08.2020 14:00:00 27,4 18,3 18 10 NNE 1003,7 10 -
03.08.2020 13:00:00 27,0 20,0 18 10 NNE - 10 -
03.08.2020 12:00:00 25,0 20,0 22 12 NNE - 10 -
03.08.2020 11:00:00 24,1 19,3 16 9 NNE 1005,3 10 0,0
03.08.2020 10:00:00 25,0 19,0 16 9 NNE - 10 -
03.08.2020 09:00:00 25,0 19,0 21 11 NE - 10 -
03.08.2020 08:00:00 24,5 19,0 18 10 NNE 1006,3 10 -
03.08.2020 07:00:00 24,0 19,0 21 11 NNE - 10 -
03.08.2020 06:00:00 24,0 19,0 18 10 ENE - 10 -
03.08.2020 05:00:00 24,0 19,1 8 4 - 1006,5 10 0,0
03.08.2020 04:00:00 24,0 19,0 15 8 NE - 10 -
03.08.2020 03:00:00 24,0 20,0 24 13 NNE - 10 -
03.08.2020 02:00:00 25,4 20,9 11 6 NNE 1007,0 10 -
03.08.2020 01:00:00 26,0 21,0 11 6 NNE - 10 -
03.08.2020 00:00:00 26,0 20,0 16 9 NE - 10 -
02.08.2020 23:00:00 26,4 20,0 26 14 NE 1007,5 10 0,0
02.08.2020 22:00:00 27,0 23,0 2 1 - - 10 -
02.08.2020 21:00:00 27,0 24,0 5 3 S - 10 -
02.08.2020 20:00:00 27,3 23,4 5 3 SE 1007,0 10 -
02.08.2020 19:00:00 28,0 23,0 5 3 S - 10 -
02.08.2020 18:00:00 28,0 24,0 8 4 S - 10 -
02.08.2020 17:00:00 28,0 24,0 8 4 SSW 1008,6 10 0,0
02.08.2020 16:00:00 28,0 24,0 8 4 S - 10 -
02.08.2020 15:00:00 28,0 24,0 9 5 S - 10 -
02.08.2020 14:00:00 27,7 24,2 8 4 S 1010,3 10 -
02.08.2020 13:00:00 27,0 24,0 8 4 S - 10 -
02.08.2020 12:00:00 27,0 24,0 9 5 SSE - 10 -
02.08.2020 11:00:00 27,1 24,2 9 5 SE 1010,9 10 0,0
02.08.2020 10:00:00 28,0 23,0 9 5 E - 10 -
02.08.2020 09:00:00 28,0 20,0 9 5 NE - 10 -
02.08.2020 08:00:00 26,1 19,0 9 5 NE 1010,5 10 -
02.08.2020 07:00:00 26,0 18,0 2 1 - - 10 -
02.08.2020 06:00:00 27,0 18,0 21 11 NNE - 10 -
02.08.2020 05:00:00 26,1 17,4 16 9 ENE 1010,1 10 0,0

tt = temperature
td = dewpoint
ff = wind speed
dd = wind direction
ppp = reduced air pressure
vv = visibility
rr = precipitation

Next stations